RH
4 5 5 5 6 5 8 10 11 10 9 8 6 5 5 5 4 5 9 13 9 5 5 5 5 6 6 7 6 9 29 43 60 40 33 31 31 34 38 74 84 89 80 85 94 88 82 91 90
4 4 6 6 6 5 8 11 13 13 10 10 9 8 7 6 5 5 6 11 8 6 4 4 5 5 6 6 6 6 7 28 50 46 43 21 26 33 55 74 87 94 90 96 98 96 93 87 95
6 6 6 6 6 5 8 10 12 10 9 9 10 10 10 9 8 6 5 5 8 8 5 5 4 5 5 6 6 7 8 17 42 46 42 30 24 23 35 53 95 96 99 97 97 98 98 96 93
6 6 5 5 6 7 8 9 10 9 8 8 8 8 9 10 9 9 9 5 4 6 6 5 5 4 4 5 11 22 10 21 28 32 34 34 42 46 24 27 50 77 96 96 94 94 95 95 94
6 6 5 5 6 7 10 9 8 9 7 7 8 8 8 8 9 9 10 11 8 6 4 4 5 4 4 4 6 20 11 32 34 14 18 28 32 26 40 26 25 39 50 80 91 94 96 99 96
7 6 6 6 8 8 9 8 7 7 7 6 7 9 10 10 10 11 10 10 10 10 8 6 5 4 4 5 10 14 10 32 7 6 6 7 7 13 27 38 38 31 34 46 59 69 96 98 96
8 8 7 7 8 8 8 7 6 6 6 6 7 9 11 13 14 14 13 12 11 10 11 10 8 9 7 6 10 6 10 7 7 7 7 7 7 8 17 20 32 51 53 59 62 80 84 96 95
18 15 13 12 13 14 11 9 7 7 6 7 8 8 15 18 18 16 15 14 13 11 10 13 12 11 10 10 8 8 8 9 10 8 6 5 6 7 9 14 17 33 37 54 52 56 74 90 95
35 18 20 30 34 29 26 24 18 13 10 10 10 10 17 20 20 20 19 16 16 14 11 10 13 13 13 14 12 12 14 14 10 8 7 6 7 8 9 12 14 22 34 24 34 42 60 97 96
23 17 24 37 46 46 40 34 26 20 14 16 17 17 18 21 22 24 25 21 19 18 15 12 11 15 16 15 16 16 15 13 11 11 9 10 10 10 10 10 12 17 22 25 18 23 42 77 97
16 11 23 33 41 42 44 42 39 34 21 19 21 22 21 24 25 28 31 29 24 20 19 14 11 12 18 19 19 17 16 15 17 15 12 11 10 10 10 9 9 11 17 23 25 23 40 71 95
11 10 12 18 23 24 29 36 37 36 34 31 30 27 26 25 26 29 32 30 27 24 19 20 17 13 15 20 22 22 20 18 17 18 16 16 14 12 12 12 11 10 11 14 25 29 28 32 50
9 8 12 16 20 17 17 17 29 33 35 33 33 33 33 31 30 29 32 36 36 36 29 24 27 22 16 18 22 28 26 24 22 19 17 18 19 17 14 14 14 13 12 12 12 19 28 30 29
10 10 8 10 14 20 20 19 16 15 31 35 34 35 38 40 39 36 32 32 38 39 35 30 29 30 30 25 25 27 29 28 27 26 23 21 22 20 20 17 15 16 16 15 14 13 14 16 22
9 9 9 8 15 23 26 25 23 25 26 27 35 36 37 42 49 48 44 39 33 33 38 36 36 38 34 33 33 32 32 33 33 32 31 29 29 26 22 21 21 17 16 17 17 16 15 14 14
26 24 20 18 24 27 36 23 32 35 31 23 23 30 32 36 45 49 48 46 42 40 36 37 36 40 42 37 33 36 38 39 40 39 38 37 34 32 29 26 23 22 22 18 18 19 18 17 16
32 30 28 28 28 36 37 30 37 38 39 35 26 22 23 33 48 61 62 59 57 54 50 41 37 35 37 38 38 36 36 38 39 41 42 41 40 38 35 32 30 28 25 26 22 20 21 22 21
38 35 33 33 34 40 39 32 38 47 44 40 36 32 29 31 48 66 80 79 76 73 65 56 52 48 43 37 36 37 34 34 37 40 43 44 44 44 43 40 37 35 34 32 30 28 24 23 23
37 37 38 36 35 34 32 32 34 30 37 44 43 42 40 38 40 47 64 78 86 87 84 75 69 60 53 53 48 48 48 44 41 39 40 44 45 46 47 47 45 43 42 40 40 35 33 31 26
41 37 34 34 36 38 40 38 42 33 31 41 50 48 46 43 40 38 35 39 52 55 68 85 90 90 77 66 63 59 55 53 52 49 46 46 45 44 46 48 50 50 47 47 45 44 39 36 34
46 45 47 46 48 50 45 35 37 40 39 42 53 62 62 57 52 50 47 38 43 46 40 53 75 90 99 97 85 75 70 62 58 59 61 60 60 56 51 48 50 52 54 53 52 50 49 44 41
58 53 45 43 44 41 57 40 41 43 43 44 55 68 75 78 76 75 74 67 52 42 40 38 36 46 63 77 95 94 86 85 86 71 63 65 64 65 66 67 64 60 60 61 59 57 54 53 50
42 46 46 53 67 70 66 59 33 49 50 56 60 68 77 94 96 97 97 92 83 72 62 55 44 31 32 38 42 47 56 72 87 98 98 86 81 88 90 73 70 71 68 67 66 65 64 61 59
68 74 100 100 100 100 86 99 53 64 80 87 86 92 97 99 98 99 99 98 96 91 79 69 63 60 53 52 52 50 51 59 66 76 80 92 97 98 97 98 93 83 77 75 74 73 71 69 67
100 100 100 100 100 87 96 100 80 84 94 100 100 100 100 100 100 100 100 100 100 100 100 97 91 85 76 68 64 61 60 62 65 56 45 46 60 77 93 100 100 100 98 97 93 87 83 80 77
100 100 100 95 92 100 100 93 84 97 100 100 100 100 100 100 100 100 100 100 100 100 100 100 100 100 100 100 94 95 99 94 91 97 97 87 81 93 98 100 100 100 100 99 98 96 96 96 95
100 100 100 100 100 98 95 79 78 86 96 99 100 97 100 100 100 100 100 100 100 100 100 100 100 100 100 100 100 99 88 74 65 77 89 99 100 100 100 100 100 100 100 100 100 99 99 96 94
100 100 99 76 66 76 51 47 66 80 91 100 100 100 96 98 99 100 100 100 100 100 100 100 100 100 100 100 100 98 84 84 88 84 70 64 73 83 91 98 100 100 100 100 100 100 100 100 100
100 96 100 100 100 100 91 67 64 72 77 82 92 100 100 100 100 100 98 100 100 100 100 100 100 100 100 100 100 100 100 100 94 91 95 93 83 65 53 47 43 42 41 45 55 68 80 88 92
77 78 72 97 100 100 100 97 77 77 79 87 91 94 97 100 100 100 100 100 100 100 100 100 100 100 100 100 100 100 100 100 100 100 100 100 100 100 98 92 81 61 45 40 42 41 37 36 35
Wind_Speed
24 23 24 24 20 12 9 7 13 12 12 16 18 18 15 16 14 11 12 14 17 16 14 14 13 12 10 11 9 10 10 8 7 7 6 9 10 12 16 13 11 13 15 15 18 17 16 19 20
26 26 27 26 23 10 7 9 13 21 16 15 17 18 18 17 16 13 14 15 18 17 16 16 15 14 13 13 11 10 10 10 9 9 9 10 12 12 13 10 15 14 12 16 19 19 22 21 21
29 30 31 32 24 9 8 12 21 25 20 19 20 20 18 15 16 16 15 16 18 19 18 17 16 16 16 14 14 13 12 10 10 9 10 9 8 10 14 20 9 13 19 18 16 15 19 24 24
33 34 35 36 20 16 15 19 25 29 26 23 23 25 20 21 21 18 17 19 19 19 19 18 18 18 17 17 16 15 14 12 11 11 9 9 8 8 10 15 20 20 23 6 8 2 12 19 21
37 37 39 37 24 18 20 26 30 33 30 28 27 23 23 24 24 22 21 20 21 22 20 20 21 20 19 19 18 16 15 14 13 11 11 11 11 9 7 8 13 20 23 25 23 18 9 8 19
41 40 41 38 28 26 28 31 35 38 36 33 31 28 26 24 23 24 26 25 24 23 22 23 22 23 21 20 19 18 18 16 15 15 14 13 12 10 10 8 9 11 12 12 12 17 11 16 13
40 40 42 41 33 31 30 37 39 41 39 34 35 32 28 25 25 26 27 28 28 28 25 24 22 24 25 23 22 20 19 18 18 18 18 18 16 13 12 12 12 9 8 9 9 11 25 13 8
36 40 42 35 26 24 31 38 41 44 40 39 38 37 30 26 28 29 30 32 33 31 29 26 24 23 22 23 23 22 20 20 23 26 26 21 15 16 15 15 14 12 12 12 11 10 19 16 13
39 44 38 25 22 21 29 36 41 41 44 43 42 41 33 31 31 32 34 35 35 33 33 31 28 27 25 24 21 19 20 26 27 26 24 20 18 19 19 20 17 16 15 13 14 12 13 13 13
41 39 32 27 26 29 35 38 41 40 47 47 45 42 38 35 35 36 36 36 35 35 36 35 33 30 28 27 26 27 27 27 24 24 22 20 21 22 23 23 21 20 18 16 13 14 13 17 15
37 39 34 32 32 36 39 41 43 44 46 50 46 45 42 39 39 39 38 37 37 38 38 37 36 33 32 31 31 31 30 29 28 27 24 23 24 25 26 25 24 23 22 20 19 16 13 13 17
44 43 42 35 36 40 43 45 46 46 46 50 48 45 43 41 41 41 40 41 41 40 39 39 38 37 36 36 35 35 34 33 33 31 29 27 27 27 27 27 26 25 25 24 23 22 21 18 17
50 48 46 43 41 44 46 47 46 50 49 49 49 47 46 45 43 43 43 43 43 42 40 40 39 39 40 41 41 39 37 36 35 35 34 32 31 31 30 30 29 28 28 27 27 26 25 24 22
52 52 52 49 48 47 49 47 51 49 47 47 46 47 49 48 46 46 46 45 42 41 43 44 43 43 42 43 43 42 41 39 38 37 37 36 35 34 33 32 32 32 31 30 30 29 30 30 28
56 56 55 55 50 48 49 50 51 45 45 49 49 48 50 51 50 47 47 47 47 45 43 44 45 45 44 44 45 45 45 43 41 40 39 39 37 37 36 35 35 35 35 34 33 33 33 33 33
58 58 58 54 53 53 51 52 47 48 48 47 48 50 53 54 54 53 52 50 48 45 44 42 44 46 45 45 46 47 46 46 45 44 43 42 41 40 39 38 38 38 37 38 37 36 36 35 35
60 57 56 56 57 57 55 51 49 51 50 53 54 55 56 56 56 54 51 50 49 49 47 45 45 45 47 48 48 48 48 48 48 47 46 46 45 44 43 41 41 41 40 40 40 40 39 38 37
57 57 56 55 55 55 56 55 55 54 55 57 58 56 56 56 56 56 55 55 53 50 50 48 47 45 44 46 48 49 50 50 49 49 49 49 48 46 45 44 45 44 43 43 43 43 42 42 40
58 58 58 60 61 64 62 62 60 60 59 58 59 59 59 59 58 57 58 58 56 55 54 52 48 46 47 48 49 50 49 50 52 53 53 51 50 49 48 48 48 47 46 46 45 45 45 45 45
60 60 60 60 61 63 63 61 61 62 62 59 58 60 60 61 60 59 59 58 56 56 57 55 52 49 50 51 51 51 52 51 51 51 52 52 53 52 52 50 50 49 48 48 48 48 48 47 47
55 53 50 50 52 55 59 62 60 59 60 60 56 55 58 61 61 59 57 56 56 55 54 55 56 56 55 55 55 54 54 54 53 52 51 50 52 51 51 52 52 52 51 51 50 50 49 49 49
46 46 48 50 53 54 55 58 55 54 56 57 55 51 52 56 58 58 56 56 56 57 58 57 57 57 57 58 59 59 59 58 57 56 55 53 52 52 52 52 53 54 53 52 52 52 52 51 51
45 45 47 49 49 50 50 52 51 48 48 47 48 46 46 48 51 53 55 57 58 59 59 58 57 58 59 58 59 60 61 62 62 60 58 58 57 57 56 54 54 54 54 54 53 54 54 54 54
39 39 38 40 40 42 40 41 42 41 37 37 39 39 42 45 49 53 55 56 58 58 57 57 57 57 58 59 58 58 58 58 60 61 63 62 62 62 61 60 59 58 56 56 55 55 54 55 55
37 37 37 39 41 42 37 36 33 31 31 30 32 36 39 40 43 49 53 53 53 52 52 53 55 56 58 59 60 59 57 56 55 56 58 61 60 60 60 59 58 58 59 59 59 58 56 55 54
41 43 42 44 45 41 39 42 37 35 34 33 30 29 32 36 42 48 52 55 54 54 52 52 53 54 56 57 58 56 52 52 53 52 53 54 56 56 57 57 57 57 57 57 57 57 58 59 59
45 45 43 43 44 47 49 48 42 39 36 36 40 39 34 32 35 36 37 44 55 57 61 61 61 59 59 56 52 52 52 51 51 52 53 52 51 52 53 54 55 55 56 58 59 60 60 61 61
50 37 38 41 43 42 50 49 44 40 34 29 33 36 36 36 40 42 41 39 41 47 48 47 46 48 49 49 50 48 47 45 46 48 48 49 51 53 54 55 55 56 56 57 57 57 58 59 60
29 31 36 34 28 30 35 38 38 37 35 34 33 32 33 34 32 31 34 33 32 35 39 40 40 42 44 47 50 52 55 54 54 54 54 53 52 52 53 54 56 57 59 60 61 62 63 64 64
34 32 42 48 45 39 32 33 34 31 31 31 29 26 27 25 27 30 34 37 40 42 43 44 46 50 51 51 52 52 51 52 53 53 53 53 55 58 61 62 62 61 61 61 62 63 63 64 65
Wind_Direction
247 244 246 246 247 243 226 241 265 264 247 245 254 261 264 258 252 238 232 228 217 213 210 214 216 216 216 221 213 207 202 203 202 213 213 213 214 226 223 227 227 225 228 230 233 242 234 232 227
246 245 246 248 248 236 213 240 264 264 263 261 260 261 261 262 265 253 246 234 228 229 221 220 219 221 218 222 227 228 223 218 221 225 227 224 217 212 209 225 238 235 242 230 232 228 240 236 227
251 246 247 247 246 226 214 240 250 259 263 265 264 263 264 273 265 265 252 247 240 231 233 229 232 229 229 230 233 238 238 233 233 238 235 229 228 223 208 218 201 242 229 217 200 212 221 234 231
254 253 253 251 240 230 233 240 249 262 261 255 259 262 267 263 267 267 266 252 247 243 240 235 241 237 237 236 237 234 240 242 242 242 245 238 222 223 221 225 229 221 213 209 170 176 232 234 234
248 249 252 252 244 229 238 244 247 254 257 259 257 258 256 256 262 266 264 262 257 250 245 242 246 244 240 242 244 240 238 241 242 251 253 241 239 227 226 228 232 239 252 266 255 277 238 186 210
248 251 255 260 253 246 240 241 242 247 250 251 251 248 249 248 253 255 256 254 256 253 248 242 241 248 246 244 242 243 248 241 248 251 251 250 249 236 236 237 233 242 253 253 263 281 211 204 207
251 252 255 254 253 250 248 245 246 246 247 250 253 251 249 246 247 248 249 250 249 252 250 246 239 241 249 250 248 245 246 250 249 247 247 245 242 240 234 243 245 246 256 256 261 264 246 236 258
253 252 252 256 260 252 247 248 246 247 246 245 247 248 249 243 244 247 248 247 247 247 247 247 241 236 239 245 248 249 246 245 240 240 241 245 246 241 238 239 240 244 247 239 249 240 239 241 232
249 252 252 254 252 245 241 243 243 243 244 243 241 244 242 241 241 243 245 249 251 250 249 245 240 241 241 245 244 246 240 239 240 246 251 252 245 237 235 238 235 234 239 239 235 240 238 232 223
251 257 258 253 247 242 238 241 246 246 248 245 244 243 242 239 240 243 245 248 250 249 247 245 242 240 241 240 240 238 237 244 247 245 245 243 239 235 233 236 237 235 234 240 246 243 232 224 226
255 257 258 246 244 241 240 239 243 246 248 255 251 250 248 244 242 242 244 247 245 246 246 246 244 241 240 240 240 240 238 239 242 243 240 238 236 235 233 234 237 238 235 231 236 245 247 228 224
252 250 249 244 241 239 242 242 241 242 245 252 256 255 253 249 247 249 250 250 250 248 245 244 244 239 237 237 237 241 240 237 239 242 240 239 239 238 237 237 237 239 239 237 236 238 243 244 237
250 251 251 250 246 243 239 243 244 245 242 246 251 254 255 253 252 252 252 250 249 250 249 247 244 241 238 237 237 238 239 240 239 242 243 241 240 240 239 238 239 239 239 239 240 240 241 244 245
253 252 253 251 249 246 247 247 247 246 248 249 250 252 252 251 248 247 247 248 248 246 244 245 245 243 239 238 238 240 241 240 240 241 242 242 241 242 241 240 239 241 242 240 240 239 241 241 242
257 257 257 257 256 254 250 248 249 255 249 248 244 243 246 249 247 245 243 242 244 244 239 240 242 244 245 242 241 242 242 242 241 241 243 245 244 242 242 242 240 239 241 243 242 241 240 241 242
258 257 257 258 259 258 252 249 249 248 248 248 247 247 243 243 243 241 242 243 244 242 245 242 241 243 243 245 244 243 244 245 244 243 242 242 245 245 245 244 242 241 240 242 243 242 242 243 243
256 259 260 259 257 255 255 255 249 245 243 244 242 241 243 241 241 245 245 247 246 247 245 243 241 240 241 242 243 244 244 245 246 246 245 243 243 243 244 245 245 244 243 242 242 243 243 243 244
259 258 257 256 255 254 252 248 245 242 241 240 244 242 241 243 245 246 246 244 245 245 247 245 245 244 242 244 245 245 245 246 247 247 247 246 246 245 245 245 244 244 244 244 244 243 243 245 245
251 249 248 249 249 250 250 249 247 246 241 240 240 243 244 243 244 244 246 247 246 246 246 248 245 243 244 241 242 243 244 243 244 245 246 247 247 245 245 244 244 244 244 244 244 244 244 244 244
252 252 251 250 250 251 251 251 249 250 250 246 241 242 244 247 246 246 247 247 246 247 247 247 246 244 242 242 242 242 244 244 244 245 245 245 248 248 248 248 247 247 246 246 247 247 245 245 245
251 252 252 255 255 254 251 248 251 251 252 252 249 243 243 244 246 247 246 246 245 245 246 247 246 244 243 242 242 242 243 244 245 245 245 245 246 247 247 247 248 247 247 246 247 247 247 246 247
248 252 253 252 253 255 254 254 251 252 252 253 252 248 243 242 244 246 246 246 246 246 246 245 247 248 246 246 246 244 243 245 245 245 245 246 246 246 246 246 246 248 248 248 248 248 248 248 248
250 250 251 251 251 250 251 254 251 251 250 250 250 249 244 240 239 241 242 242 242 242 244 245 244 244 245 246 247 247 247 245 246 248 247 246 247 248 248 247 248 247 248 248 248 248 249 250 250
251 250 246 245 245 248 249 251 247 247 244 242 241 240 238 237 235 236 237 239 240 240 240 239 239 238 240 244 246 247 248 248 246 246 248 247 247 248 248 248 247 246 248 249 249 250 250 250 250
243 234 234 233 238 243 235 240 242 241 239 239 238 239 234 236 237 235 235 234 235 237 239 240 241 241 241 242 244 246 245 246 246 245 245 247 248 248 249 250 250 250 249 248 248 248 247 248 249
237 231 231 237 236 238 241 242 240 243 245 247 244 243 242 240 239 239 238 239 244 243 238 234 233 235 237 239 240 241 241 240 242 243 244 244 246 247 247 247 248 248 250 251 252 252 252 251 251
237 236 242 245 247 249 248 244 246 249 246 248 247 247 240 233 232 232 238 239 237 235 234 232 230 230 232 233 235 239 241 242 243 244 245 245 245 246 248 249 250 250 251 251 251 251 252 253 253
239 246 253 254 252 251 250 249 246 243 245 243 240 243 244 240 243 245 244 244 241 236 232 232 234 236 235 236 236 237 235 238 241 243 244 246 248 248 249 249 248 249 249 250 250 251 251 252 253
227 233 223 218 224 245 253 250 247 247 246 246 245 246 243 242 239 240 243 243 241 242 245 245 243 240 240 241 241 241 241 242 242 242 241 242 244 247 249 251 251 252 252 253 253 254 254 254 255
246 240 234 230 229 233 243 255 255 248 244 243 243 242 241 235 238 235 239 242 241 241 242 243 242 243 243 242 242 244 245 245 246 247 249 251 252 253 251 251 253 256 257 258 257 257 257 258 259